Weather History for San Luis Potosi, Mexico

Change the Weather History Date:

Tuesday, March 5, 2013

  Actual Average Record
Temperature  
Mean Temperature 59 °F -  
Max Temperature 85 °F 77 °F 86 °F (1997)
Min Temperature 33 °F 46 °F 30 °F (2002)
Degree Days  
Heating Degree Days 6    
Growing Degree Days 9 (Base 50)    
Moisture  
Dew Point 19 °F    
Average Humidity 26    
Maximum Humidity 92    
Minimum Humidity 4    
Precipitation  
Precipitation 0.00 in - - ()
Sea Level Pressure  
Sea Level Pressure 30.11 in    
Wind  
Wind Speed 4 mph ()    
Max Wind Speed 23 mph    
Max Gust Speed 34 mph    
Visibility 9.6 miles    
Events      
Averages and records for this station are not official NWS values.
T = Trace of Precipitation, MM = Missing Value Source: Averaged Metar Reports

Daily Weather History Graph

Daily Weather History Graph

Search for Another Location

Airport:

Trip Planner

Search our weather history database for the weather conditions in past years. The results will help you decide how hot, cold, wet, or windy it might be!

Date:

Astronomy

Mar. 05, 2013 Rise Set
Actual Time 7:01 AM CST 6:49 PM CST
Civil Twilight 6:38 AM CST 7:11 PM CST
Nautical Twilight 6:12 AM CST 7:37 PM CST
Astronomical Twilight 5:46 AM CST 8:03 PM CST
Moon 1:45 AM CST (3/5) 1:00 PM CST (3/5)
Length of Visible Light 12h 33m
Length of Day
11h 48m
Last Quarter, 40% of the Moon is Illuminated
Mar 5
Last Quarter
Mar 11
New
Mar 19
First Quarter
Mar 27
Full
Apr 2
Last Quarter

Hourly Weather History & Observations

Time (CST) Temp. Windchill Dew Point Humidity Pressure Visibility Wind Dir Wind Speed Gust Speed Precip Events Conditions
12:44 AM 50.0 °F - 5.0 °F 16% 30.19 in 10.0 mi WNW 4.6 mph - N/A   Clear
1:44 AM 50.0 °F - 5.0 °F 16% 30.19 in 8.0 mi Calm Calm - N/A   Clear
2:41 AM 46.4 °F - 5.0 °F 18% 29.79 in 8.0 mi Calm Calm - N/A   Clear
3:48 AM 42.8 °F - 6.8 °F 23% 30.20 in 8.0 mi Calm Calm - N/A   Clear
4:50 AM 44.6 °F - -0.4 °F 15% 30.21 in 8.0 mi Calm Calm - N/A   Clear
5:48 AM 35.6 °F 31.7 °F 3.2 °F 26% 29.87 in 8.0 mi WSW 4.6 mph - N/A   Clear
5:50 AM 37 °F - 36 °F 92% 30.15 in 5 mi North 2.2 mph - -  
6:46 AM 35.6 °F - 8.6 °F 33% 30.26 in 6.0 mi Calm Calm - N/A   Clear
7:48 AM 37.4 °F - 19.4 °F 48% 30.29 in 7.0 mi Calm Calm - N/A   Clear
8:40 AM 51.8 °F - 10.4 °F 19% 30.00 in 10.0 mi Calm Calm - N/A   Clear
8:50 AM 59 °F - 43 °F 43% 30.25 in 11 mi WNW 4.5 mph - -   Haze
9:43 AM 62.6 °F - 10.4 °F 13% 30.33 in 12.0 mi Calm Calm - N/A   Clear
10:40 AM 69.8 °F - -0.4 °F 6% 30.32 in 15.0 mi NW 8.1 mph - N/A   Partly Cloudy
11:41 AM 73.4 °F - 1.4 °F 6% 29.89 in 15.0 mi West 9.2 mph - N/A   Partly Cloudy
11:45 AM 71 °F - 41 °F 23% 30.20 in 9 mi North 2.2 mph - -   Haze
12:40 PM 75.2 °F - 1.4 °F 6% 30.27 in 15.0 mi Calm Calm - N/A   Partly Cloudy
1:40 PM 80.6 °F - 12.2 °F 8% 30.23 in 15.0 mi WNW 13.8 mph - N/A   Scattered Clouds
2:45 PM 82 °F - 48 °F 21% 29.99 in 12 mi North 2.2 mph - -   Clear
2:52 PM 80.6 °F - 6.8 °F 6% 29.79 in 15.0 mi NW 5.8 mph - N/A   Mostly Cloudy
3:45 PM 82.4 °F - 1.4 °F 4% 30.19 in 15.0 mi Calm Calm - N/A   Mostly Cloudy
4:48 PM 82.4 °F - -0.4 °F 4% 30.17 in 15.0 mi Calm Calm - N/A   Mostly Cloudy
5:49 PM 78.8 °F - 12.2 °F 8% 29.85 in 15.0 mi East 13.8 mph - N/A   Scattered Clouds
5:50 PM 75 °F - 43 °F 21% 29.83 in 12 mi East 2.2 mph - -   Clear
6:43 PM 69.8 °F - 21.2 °F 16% 30.20 in 5.0 mi ESE 23.0 mph - N/A   Mostly Cloudy
7:47 PM 62.6 °F - 19.4 °F 19% 30.23 in 5.0 mi ESE 23.0 mph - N/A   Mostly Cloudy
8:40 PM 60.8 °F - 19.4 °F 20% 29.95 in 5.0 mi SSE 11.5 mph 23.0 mph N/A   Widespread Dust
8:50 PM 61 °F - 53 °F 67% 29.87 in 5 mi SSE 6.7 mph - -  
9:45 PM 57.2 °F - 41.0 °F 55% 30.31 in 6.0 mi SE 20.7 mph - N/A   Scattered Clouds
10:49 PM 53.6 °F - 39.2 °F 58% 30.35 in 6.0 mi SE 16.1 mph - N/A   Clear
11:46 PM 53.6 °F - 35.6 °F 51% 29.96 in 6.0 mi SSE 23.0 mph 34.5 mph N/A   Clear
11:50 PM 53 °F - 43 °F 59% 29.99 in 5 mi North 4.5 mph - -